Starlink 32916

operational
NORAD ID: 62922 Int'l Des: 2025-027 Owner: SPXS Country: US Constellation: starlink
LEOCIRCULAR

About Starlink 32916

Description loading...

Live Position

Loading 3D Globe...

Upcoming Passes

Altitude History

Altitude vs Time

uPlot chart will show altitude changes over time

Two-Line Element Set

1 62922U 25027R 25302.98472656 .00047033 00000-0 17058-2 0 9996
2 62922 43.0010 146.9330 0001951 273.7911 86.2718 15.27617034 41556
Epoch: Oct 29, 2025 • Age: 18 hours

Current Status

Altitude 486.7 km
Velocity 7.63 km/s
Sub-Earth Point 41.03°N, 44.99°W
Launch Date Feb 8, 2025
Age 0.7 years
Type internet

Technical Details

Classification Payload
Mass 730.00 kg
Dry Mass 700.00 kg
Total Mass 730.00 kg
Length 0.30 m
Diameter 4.10 m
Span 29.00 m
Shape Box + pan
Manufacturer SPXS
Bus Type Starlink V2M
Phase Status In Orbit
Owner/State SPXS/US

Large Constellations

Loading constellations...